| time (UTC) | temp C | wind direction | speed KPH | gust KPH | rain 1hr cm | rain 24hr cm | rain mn cm | humidity % | barometer mb |
| 20260509024546 | 23 | 308 | 0.0 | 3.2 | 0.00 | 0.00 | 0.00 | 56 | 1020.4 |
| 20260509023055 | 22 | 111 | 0.0 | 9.7 | 0.00 | 0.00 | 0.00 | 57 | 1020.5 |
| 20260509021544 | 22 | 116 | 0.0 | 3.2 | 0.00 | 0.00 | 0.00 | 58 | 1020.8 |
| 20260509014538 | 23 | 136 | 1.6 | 9.7 | 0.00 | 0.00 | 0.00 | 55 | 1021.1 |
| 20260509013038 | 23 | 86 | 1.6 | 8.0 | 0.00 | 0.00 | 0.00 | 56 | 1021.3 |
| 20260509011535 | 23 | 225 | 0.0 | 12.9 | 0.00 | 0.00 | 0.00 | 58 | 1021.3 |
| 20260509004539 | 22 | 88 | 0.0 | 8.0 | 0.00 | 0.00 | 0.00 | 58 | 1021.5 |
| 20260509003034 | 22 | 116 | 0.0 | 11.3 | 0.00 | 0.00 | 0.00 | 58 | 1021.6 |
| 20260509001530 | 21 | 109 | 0.0 | 11.3 | 0.00 | 0.00 | 0.00 | 59 | 1021.6 |
| 20260508234535 | 21 | 320 | 0.0 | 6.4 | 0.00 | 0.00 | 0.00 | 56 | 1021.6 |
| 20260508233023 | 21 | 191 | 0.0 | 4.8 | 0.00 | 0.00 | 0.00 | 56 | 1021.5 |
| 20260508231519 | 20 | 72 | 0.0 | 6.4 | 0.00 | 0.00 | 0.00 | 55 | 1021.4 |
| 20260508224515 | 18 | 232 | 0.0 | 0.0 | 0.00 | 0.00 | 0.00 | 74 | 1021.2 |
| 20260508223012 | 17 | 251 | 0.0 | 0.0 | 0.00 | 0.00 | 0.00 | 77 | 1021.2 |
| 20260508221507 | 16 | 207 | 0.0 | 0.0 | 0.00 | 0.00 | 0.00 | 80 | 1021.1 |
| 20260508214625 | 13 | 232 | 0.0 | 0.0 | 0.00 | 0.00 | 0.00 | 86 | 1020.7 |
| 20260508213059 | 13 | 232 | 0.0 | 0.0 | 0.00 | 0.00 | 0.00 | 86 | 1020.5 |
| 20260508211559 | 12 | 237 | 0.0 | 0.0 | 0.00 | 0.00 | 0.00 | 87 | 1020.4 |
| 20260508204511 | 12 | 249 | 0.0 | 0.0 | 0.00 | 0.00 | 0.00 | 87 | 1020.0 |
| 20260508203009 | 12 | 233 | 0.0 | 0.0 | 0.00 | 0.00 | 0.00 | 86 | 1019.7 |
| 20260508201512 | 12 | 232 | 0.0 | 0.0 | 0.00 | 0.00 | 0.00 | 86 | 1019.5 |
| 20260508194613 | 12 | 232 | 0.0 | 1.6 | 0.00 | 0.00 | 0.00 | 85 | 1019.2 |
| 20260508193043 | 12 | 234 | 0.0 | 1.6 | 0.00 | 0.00 | 0.00 | 86 | 1019.1 |
| 20260508191538 | 12 | 235 | 0.0 | 0.0 | 0.00 | 0.00 | 0.00 | 86 | 1019.1 |
| 20260508184539 | 11 | 235 | 0.0 | 0.0 | 0.00 | 0.00 | 0.00 | 87 | 1018.9 |
| 20260508183038 | 11 | 238 | 0.0 | 0.0 | 0.00 | 0.00 | 0.00 | 87 | 1018.8 |
| 20260508181600 | 11 | 234 | 0.0 | 1.6 | 0.00 | 0.00 | 0.00 | 87 | 1018.8 |
| 20260508174540 | 11 | 239 | 0.0 | 0.0 | 0.00 | 0.00 | 0.00 | 87 | 1018.9 |
| 20260508173038 | 11 | 234 | 0.0 | 0.0 | 0.00 | 0.00 | 0.00 | 87 | 1018.8 |
| 20260508171534 | 11 | 244 | 0.0 | 0.0 | 0.00 | 0.00 | 0.00 | 88 | 1018.7 |
| 20260508164532 | 11 | 245 | 0.0 | 0.0 | 0.00 | 0.00 | 0.00 | 87 | 1018.5 |
| 20260508163031 | 11 | 250 | 0.0 | 0.0 | 0.00 | 0.00 | 0.00 | 86 | 1018.5 |
| 20260508161532 | 11 | 251 | 0.0 | 0.0 | 0.00 | 0.00 | 0.00 | 85 | 1018.5 |
| 20260508154535 | 11 | 230 | 0.0 | 0.0 | 0.00 | 0.00 | 0.00 | 85 | 1018.5 |
| 20260508153042 | 11 | 237 | 0.0 | 0.0 | 0.00 | 0.00 | 0.00 | 85 | 1018.6 |
| 20260508151532 | 11 | 228 | 0.0 | 0.0 | 0.00 | 0.00 | 0.00 | 85 | 1018.6 |
| 20260508144525 | 11 | 237 | 0.0 | 1.6 | 0.00 | 0.00 | 0.00 | 85 | 1018.7 |
| 20260508143026 | 11 | 248 | 0.0 | 0.0 | 0.00 | 0.00 | 0.00 | 85 | 1018.6 |
| 20260508141524 | 11 | 244 | 0.0 | 0.0 | 0.00 | 0.00 | 0.00 | 85 | 1018.6 |
| 20260508134521 | 11 | 226 | 0.0 | 0.0 | 0.00 | 0.00 | 0.00 | 86 | 1018.4 |
| 20260508133022 | 11 | 216 | 0.0 | 0.0 | 0.00 | 0.00 | 0.00 | 86 | 1018.3 |
| 20260508131521 | 11 | 225 | 0.0 | 0.0 | 0.00 | 0.00 | 0.00 | 86 | 1018.3 |
| 20260508124523 | 11 | 207 | 0.0 | 0.0 | 0.00 | 0.00 | 0.00 | 85 | 1018.4 |
| 20260508123022 | 11 | 192 | 0.0 | 0.0 | 0.00 | 0.00 | 0.00 | 83 | 1018.4 |
| 20260508121522 | 11 | 217 | 0.0 | 0.0 | 0.00 | 0.00 | 0.00 | 83 | 1018.2 |
| 20260508114521 | 12 | 241 | 0.0 | 1.6 | 0.00 | 0.00 | 0.00 | 83 | 1018.3 |
| 20260508113022 | 12 | 230 | 0.0 | 1.6 | 0.00 | 0.00 | 0.00 | 82 | 1018.2 |
| 20260508111521 | 12 | 230 | 0.0 | 0.0 | 0.00 | 0.00 | 0.00 | 81 | 1018.1 |
| 20260508104538 | 12 | 236 | 0.0 | 0.0 | 0.00 | 0.00 | 0.00 | 80 | 1018.1 |
| 20260508103039 | 12 | 212 | 0.0 | 0.0 | 0.00 | 0.00 | 0.00 | 81 | 1017.8 |
| 20260508101538 | 13 | 231 | 0.0 | 0.0 | 0.00 | 0.00 | 0.00 | 81 | 1017.7 |
| 20260508094523 | 13 | 254 | 0.0 | 0.0 | 0.00 | 0.00 | 0.00 | 79 | 1017.4 |
| 20260508093025 | 13 | 248 | 0.0 | 0.0 | 0.00 | 0.00 | 0.00 | 77 | 1017.3 |
| 20260508091527 | 14 | 258 | 0.0 | 3.2 | 0.00 | 0.00 | 0.00 | 76 | 1017.1 |
| 20260508084534 | 15 | 218 | 0.0 | 0.0 | 0.00 | 0.00 | 0.00 | 75 | 1016.8 |
| 20260508083035 | 15 | 234 | 0.0 | 0.0 | 0.00 | 0.00 | 0.00 | 74 | 1016.7 |
| 20260508081535 | 15 | 233 | 0.0 | 0.0 | 0.00 | 0.00 | 0.00 | 73 | 1016.5 |
| 20260508074518 | 16 | 200 | 0.0 | 0.0 | 0.00 | 0.00 | 0.00 | 68 | 1016.2 |
| 20260508073018 | 16 | 81 | 0.0 | 0.0 | 0.00 | 0.00 | 0.00 | 66 | 1015.8 |
| 20260508071526 | 17 | 81 | 0.0 | 0.0 | 0.00 | 0.00 | 0.00 | 62 | 1015.7 |
| 20260508064522 | 19 | 80 | 0.0 | 0.0 | 0.00 | 0.00 | 0.00 | 54 | 1015.2 |
| 20260508063022 | 20 | 75 | 0.0 | 1.6 | 0.00 | 0.00 | 0.00 | 52 | 1015.1 |
| 20260508061525 | 21 | 60 | 0.0 | 3.2 | 0.00 | 0.00 | 0.00 | 48 | 1015.1 |
| 20260508054557 | 21 | 343 | 0.0 | 1.6 | 0.00 | 0.00 | 0.00 | 48 | 1015.1 |
| 20260508053056 | 21 | 309 | 0.0 | 0.0 | 0.00 | 0.00 | 0.00 | 47 | 1015.1 |
| 20260508051550 | 21 | 327 | 0.0 | 0.0 | 0.00 | 0.00 | 0.00 | 45 | 1015.3 |
| 20260508044509 | 21 | 55 | 0.0 | 6.4 | 0.00 | 0.00 | 0.00 | 44 | 1015.3 |
| 20260508043007 | 21 | 2 | 0.0 | 1.6 | 0.00 | 0.00 | 0.00 | 45 | 1015.3 |
| 20260508041505 | 21 | 335 | 0.0 | 6.4 | 0.00 | 0.00 | 0.00 | 44 | 1015.4 |
| 20260508034506 | 21 | 81 | 0.0 | 4.8 | 0.00 | 0.00 | 0.00 | 43 | 1015.6 |
| 20260508033006 | 21 | 326 | 0.0 | 4.8 | 0.00 | 0.00 | 0.00 | 45 | 1015.9 |
| 20260508031505 | 20 | 19 | 0.0 | 4.8 | 0.00 | 0.00 | 0.00 | 46 | 1016.1 |